GLO1861 SBVT-SBGL

Flight info

Callsign GLO1861
Flight time N/A
Altitude 36000
Route USVAG UN401 MOLSU
Aircraft B38M/M-DFGHIJ4J7KLORWXY/LB1

Departure

Time 2026-05-08 22:29
Airport Eurico de Aguiar Salles International Airport (SBVT)

Arrival

Time N/A
Airport Rio Galeão – Tom Jobim International Airport (SBGL)
Time Latitude Longitude Altitude Speed Heading
2026-05-08 21:55 -20.26498 -40.28173 35 ft 0 kts 262°
2026-05-08 22:22 -20.26493 -40.28147 34 ft 4 kts 259°
2026-05-08 22:22 -20.26485 -40.28121 36 ft 4 kts 231°
2026-05-08 22:22 -20.26465 -40.28108 36 ft 4 kts 183°
2026-05-08 22:22 -20.26450 -40.28109 33 ft 1 kts 172°
2026-05-08 22:23 -20.26449 -40.28109 33 ft 0 kts 172°
2026-05-08 22:26 -20.26452 -40.28109 37 ft 2 kts 172°
2026-05-08 22:26 -20.26475 -40.28106 37 ft 5 kts 172°
2026-05-08 22:26 -20.26525 -40.28098 37 ft 9 kts 172°
2026-05-08 22:26 -20.26598 -40.28087 37 ft 11 kts 169°
2026-05-08 22:27 -20.26638 -40.28035 37 ft 10 kts 68°
2026-05-08 22:27 -20.26615 -40.27977 40 ft 5 kts 75°
2026-05-08 22:27 -20.26609 -40.27945 41 ft 5 kts 81°
2026-05-08 22:27 -20.26602 -40.27900 40 ft 8 kts 81°
2026-05-08 22:28 -20.26566 -40.27854 40 ft 10 kts
2026-05-08 22:28 -20.26536 -40.27856 40 ft 0 kts 353°
2026-05-08 22:28 -20.26459 -40.27866 37 ft 43 kts 352°
2026-05-08 22:28 -20.25907 -40.27949 43 ft 115 kts 352°
2026-05-08 22:29 -20.24929 -40.28096 43 ft 170 kts 354°
2026-05-08 22:29 -20.23718 -40.28269 635 ft 178 kts 356°
2026-05-08 22:29 -20.22432 -40.28333 1188 ft 198 kts
2026-05-08 22:29 -20.21091 -40.27714 1611 ft 228 kts 42°
2026-05-08 22:30 -20.20143 -40.26365 2615 ft 226 kts 57°
2026-05-08 22:30 -20.19203 -40.25077 3769 ft 215 kts 41°
2026-05-08 22:30 -20.18102 -40.23992 4786 ft 215 kts 42°
2026-05-08 22:30 -20.17033 -40.22882 5730 ft 217 kts 40°
2026-05-08 22:31 -20.15705 -40.22023 6310 ft 234 kts 16°
2026-05-08 22:31 -20.14027 -40.22032 6734 ft 255 kts 343°
2026-05-08 22:31 -20.12538 -40.23101 6839 ft 267 kts 310°
2026-05-08 22:31 -20.11787 -40.24932 6948 ft 277 kts 287°
2026-05-08 22:32 -20.11257 -40.26914 6990 ft 281 kts 291°
2026-05-08 22:32 -20.10651 -40.28901 7023 ft 283 kts 291°
2026-05-08 22:32 -20.10031 -40.30891 7041 ft 283 kts 291°
2026-05-08 22:32 -20.09403 -40.32874 7093 ft 283 kts 292°
2026-05-08 22:33 -20.08768 -40.34865 7084 ft 283 kts 292°
2026-05-08 22:33 -20.08254 -40.36895 7212 ft 288 kts 276°
2026-05-08 22:33 -20.08563 -40.38993 8098 ft 292 kts 250°
2026-05-08 22:33 -20.09671 -40.40834 8937 ft 302 kts 226°
2026-05-08 22:34 -20.11368 -40.42167 9853 ft 306 kts 214°
2026-05-08 22:34 -20.13165 -40.43416 10526 ft 317 kts 214°
2026-05-08 22:34 -20.15060 -40.44726 10988 ft 334 kts 213°
2026-05-08 22:34 -20.17049 -40.46092 11572 ft 344 kts 213°
2026-05-08 22:35 -20.19062 -40.47469 12420 ft 346 kts 213°
2026-05-08 22:35 -20.21104 -40.48866 13201 ft 351 kts 213°
2026-05-08 22:35 -20.23173 -40.50280 13964 ft 355 kts 213°
2026-05-08 22:35 -20.25265 -40.51710 14667 ft 359 kts 213°
2026-05-08 22:36 -20.27373 -40.53153 15397 ft 362 kts 213°
2026-05-08 22:36 -20.29503 -40.54611 16101 ft 365 kts 213°
2026-05-08 22:36 -20.31640 -40.56074 16796 ft 368 kts 213°
2026-05-08 22:36 -20.33798 -40.57552 17478 ft 371 kts 212°
2026-05-08 22:37 -20.35981 -40.59047 18144 ft 374 kts 212°
2026-05-08 22:37 -20.38181 -40.60555 18717 ft 378 kts 213°
2026-05-08 22:37 -20.40402 -40.62078 19279 ft 381 kts 213°
2026-05-08 22:37 -20.42635 -40.63609 19829 ft 382 kts 213°
2026-05-08 22:38 -20.44873 -40.65145 20424 ft 384 kts 213°
2026-05-08 22:38 -20.47118 -40.66685 21031 ft 384 kts 213°
2026-05-08 22:38 -20.49371 -40.68232 21615 ft 386 kts 213°
2026-05-08 22:38 -20.51622 -40.69778 22191 ft 386 kts 213°
2026-05-08 22:39 -20.53886 -40.71333 22775 ft 387 kts 213°
2026-05-08 22:39 -20.56155 -40.72893 23311 ft 390 kts 214°
2026-05-08 22:39 -20.58436 -40.74460 23856 ft 390 kts 214°
2026-05-08 22:39 -20.60725 -40.76035 24303 ft 392 kts 213°
2026-05-08 22:40 -20.63020 -40.77613 24718 ft 395 kts 214°
2026-05-08 22:40 -20.65338 -40.79208 25129 ft 397 kts 214°
2026-05-08 22:40 -20.67667 -40.80812 25540 ft 399 kts 214°
2026-05-08 22:40 -20.69872 -40.82610 25946 ft 399 kts 227°
2026-05-08 22:41 -20.71712 -40.84818 26359 ft 401 kts 228°
2026-05-08 22:41 -20.73600 -40.87022 26747 ft 404 kts 228°
2026-05-08 22:41 -20.75488 -40.89252 27158 ft 405 kts 229°
2026-05-08 22:41 -20.77376 -40.91498 27563 ft 407 kts 229°
2026-05-08 22:42 -20.79270 -40.93760 27943 ft 409 kts 229°
2026-05-08 22:42 -20.81171 -40.96032 28339 ft 411 kts 229°
2026-05-08 22:42 -20.83080 -40.98315 28728 ft 413 kts 229°
2026-05-08 22:42 -20.85026 -41.00645 29116 ft 415 kts 229°
2026-05-08 22:43 -20.86926 -41.02920 29506 ft 417 kts 229°
2026-05-08 22:43 -20.88878 -41.05258 29875 ft 419 kts 229°
2026-05-08 22:43 -20.90793 -41.07553 30220 ft 420 kts 229°
2026-05-08 22:43 -20.92745 -41.09894 30517 ft 423 kts 229°
2026-05-08 22:44 -20.94705 -41.12244 30823 ft 424 kts 229°
2026-05-08 22:44 -20.96672 -41.14605 31117 ft 426 kts 229°
2026-05-08 22:44 -20.98649 -41.16979 31406 ft 428 kts 229°
2026-05-08 22:44 -21.00637 -41.19367 31716 ft 430 kts 229°
2026-05-08 22:45 -21.02629 -41.21760 32009 ft 432 kts 229°
2026-05-08 22:45 -21.04622 -41.24156 32293 ft 434 kts 229°
2026-05-08 22:45 -21.06636 -41.26578 32590 ft 436 kts 229°
2026-05-08 22:45 -21.08651 -41.29003 32891 ft 437 kts 229°
2026-05-08 22:46 -21.10671 -41.31436 33290 ft 436 kts 229°
2026-05-08 22:46 -21.12684 -41.33859 33693 ft 435 kts 229°
2026-05-08 22:46 -21.14695 -41.36283 34072 ft 435 kts 229°
2026-05-08 22:46 -21.16700 -41.38698 34386 ft 434 kts 229°
2026-05-08 22:47 -21.18702 -41.41113 34727 ft 432 kts 229°
2026-05-08 22:47 -21.20695 -41.43517 35066 ft 431 kts 229°
2026-05-08 22:47 -21.22678 -41.45911 35385 ft 430 kts 229°
2026-05-08 22:47 -21.24657 -41.48300 35705 ft 429 kts 229°
2026-05-08 22:48 -21.26638 -41.50693 35986 ft 428 kts 229°
2026-05-08 22:48 -21.30584 -41.55465 36042 ft 426 kts 229°
2026-05-08 22:49 -21.34502 -41.60209 36048 ft 427 kts 229°
2026-05-08 22:49 -21.40395 -41.67352 36046 ft 427 kts 229°
2026-05-08 22:50 -21.44330 -41.72127 36041 ft 427 kts 229°
2026-05-08 22:50 -21.48262 -41.76903 36049 ft 427 kts 230°
2026-05-08 22:51 -21.52193 -41.81681 36052 ft 427 kts 230°
2026-05-08 22:51 -21.56122 -41.86461 36046 ft 427 kts 230°
2026-05-08 22:52 -21.60056 -41.91252 36047 ft 427 kts 230°
2026-05-08 22:52 -21.63985 -41.96041 36056 ft 427 kts 230°
2026-05-08 22:53 -21.67914 -42.00836 36049 ft 428 kts 230°
2026-05-08 22:53 -21.71852 -42.05642 36023 ft 417 kts 230°
2026-05-08 22:54 -21.73723 -42.07929 35679 ft 411 kts 230°
2026-05-08 22:54 -21.75608 -42.10233 35099 ft 411 kts 230°
2026-05-08 22:54 -21.77500 -42.12546 34502 ft 412 kts 230°
2026-05-08 22:54 -21.79388 -42.14856 33989 ft 411 kts 230°
2026-05-08 22:55 -21.81270 -42.17159 33430 ft 409 kts 230°
2026-05-08 22:55 -21.83161 -42.19439 32903 ft 408 kts 226°
2026-05-08 22:55 -21.85422 -42.21279 32334 ft 410 kts 211°
2026-05-08 22:55 -21.87898 -42.22772 31858 ft 406 kts 212°
2026-05-08 22:56 -21.90329 -42.24279 31446 ft 403 kts 212°
2026-05-08 22:56 -21.92763 -42.25769 30972 ft 401 kts 212°
2026-05-08 22:56 -21.94369 -42.26745 30657 ft 400 kts 212°
2026-05-08 22:56 -21.96792 -42.28212 30187 ft 399 kts 212°
2026-05-08 22:57 -21.99204 -42.29671 29658 ft 397 kts 211°
2026-05-08 22:57 -22.01603 -42.31122 29173 ft 394 kts 212°
2026-05-08 22:57 -22.03988 -42.32564 28737 ft 391 kts 212°
2026-05-08 22:57 -22.06351 -42.33994 28296 ft 387 kts 212°
2026-05-08 22:58 -22.08583 -42.35549 27848 ft 376 kts 224°
2026-05-08 22:58 -22.10191 -42.37665 27528 ft 362 kts 243°
2026-05-08 22:58 -22.11125 -42.40226 27297 ft 364 kts 253°
2026-05-08 22:58 -22.11852 -42.42830 26990 ft 365 kts 254°
2026-05-08 22:59 -22.12542 -42.45455 26662 ft 364 kts 255°
2026-05-08 22:59 -22.13207 -42.48083 26338 ft 363 kts 256°
2026-05-08 22:59 -22.13857 -42.50708 26034 ft 362 kts 256°
2026-05-08 22:59 -22.14498 -42.53337 25713 ft 361 kts 256°
2026-05-08 23:00 -22.15129 -42.55943 25400 ft 361 kts 256°
2026-05-08 23:00 -22.15756 -42.58543 25212 ft 353 kts 256°
2026-05-08 23:00 -22.16362 -42.61064 25161 ft 342 kts 257°
2026-05-08 23:00 -22.16950 -42.63509 25080 ft 340 kts 257°
2026-05-08 23:01 -22.17547 -42.65995 24823 ft 351 kts 257°
2026-05-08 23:01 -22.18171 -42.68596 24472 ft 356 kts 257°
2026-05-08 23:01 -22.18793 -42.71187 24101 ft 358 kts 257°
2026-05-08 23:01 -22.19413 -42.73776 23667 ft 356 kts 257°
2026-05-08 23:02 -22.20020 -42.76308 23263 ft 349 kts 257°
2026-05-08 23:02 -22.20622 -42.78825 22900 ft 345 kts 257°
2026-05-08 23:02 -22.21219 -42.81323 22533 ft 343 kts 257°
2026-05-08 23:02 -22.21813 -42.83804 22186 ft 340 kts 257°
2026-05-08 23:03 -22.22402 -42.86277 21819 ft 341 kts 257°
2026-05-08 23:03 -22.23006 -42.88805 21488 ft 345 kts 257°
2026-05-08 23:03 -22.23595 -42.91277 21176 ft 346 kts 257°
2026-05-08 23:03 -22.24201 -42.93820 20837 ft 345 kts 257°
2026-05-08 23:04 -22.24798 -42.96327 20499 ft 344 kts 257°
2026-05-08 23:04 -22.25391 -42.98822 20157 ft 342 kts 257°
2026-05-08 23:04 -22.25981 -43.01301 19819 ft 340 kts 257°
2026-05-08 23:04 -22.26568 -43.03771 19437 ft 339 kts 258°
2026-05-08 23:05 -22.27153 -43.06234 19121 ft 337 kts 258°
2026-05-08 23:05 -22.27733 -43.08683 18787 ft 336 kts 258°
2026-05-08 23:05 -22.28312 -43.11122 18460 ft 334 kts 258°
2026-05-08 23:05 -22.28885 -43.13547 18095 ft 333 kts 258°
2026-05-08 23:06 -22.29454 -43.15951 17750 ft 331 kts 258°
2026-05-08 23:06 -22.30014 -43.18318 17419 ft 328 kts 258°
2026-05-08 23:06 -22.30582 -43.20723 17063 ft 325 kts 258°
2026-05-08 23:06 -22.31132 -43.23053 16756 ft 323 kts 258°
2026-05-08 23:07 -22.31694 -43.25434 16339 ft 324 kts 258°
2026-05-08 23:07 -22.32252 -43.27794 15991 ft 323 kts 258°
2026-05-08 23:07 -22.32806 -43.30144 15625 ft 323 kts 258°
2026-05-08 23:07 -22.33352 -43.32462 15274 ft 322 kts 258°
2026-05-08 23:08 -22.33903 -43.34804 14916 ft 322 kts 258°
2026-05-08 23:08 -22.34454 -43.37148 14541 ft 322 kts 258°
2026-05-08 23:08 -22.35004 -43.39492 14168 ft 322 kts 258°
2026-05-08 23:08 -22.35555 -43.41835 13801 ft 322 kts 258°
2026-05-08 23:09 -22.36104 -43.44175 13386 ft 322 kts 258°
2026-05-08 23:09 -22.36741 -43.46489 13074 ft 322 kts 249°
2026-05-08 23:09 -22.38068 -43.48412 13029 ft 322 kts 224°
2026-05-08 23:09 -22.39991 -43.49658 13050 ft 326 kts 204°
2026-05-08 23:10 -22.42114 -43.50543 12980 ft 328 kts 204°
2026-05-08 23:10 -22.44249 -43.51450 12383 ft 330 kts 203°
2026-05-08 23:10 -22.46405 -43.52358 11577 ft 336 kts 203°
2026-05-08 23:10 -22.48606 -43.53281 10719 ft 342 kts 202°
2026-05-08 23:11 -22.50851 -43.54220 9882 ft 349 kts 203°
2026-05-08 23:11 -22.53134 -43.55175 9034 ft 352 kts 203°
2026-05-08 23:11 -22.55498 -43.55837 8332 ft 354 kts 184°
2026-05-08 23:11 -22.57886 -43.55443 7713 ft 349 kts 158°
2026-05-08 23:12 -22.60032 -43.54274 7224 ft 340 kts 153°
2026-05-08 23:12 -22.62124 -43.53150 6726 ft 333 kts 154°
2026-05-08 23:12 -22.64127 -43.51961 6263 ft 324 kts 142°
2026-05-08 23:12 -22.65582 -43.50144 5648 ft 319 kts 121°
2026-05-08 23:13 -22.66829 -43.48157 5089 ft 316 kts 123°
2026-05-08 23:13 -22.68089 -43.46226 4510 ft 312 kts 123°
2026-05-08 23:13 -22.69308 -43.44373 4431 ft 291 kts 123°
2026-05-08 23:13 -22.70442 -43.42660 4421 ft 268 kts 123°
2026-05-08 23:14 -22.71481 -43.41094 4430 ft 245 kts 123°
2026-05-08 23:14 -22.72436 -43.39655 4225 ft 229 kts 123°
2026-05-08 23:14 -22.73368 -43.38283 3864 ft 223 kts 123°
2026-05-08 23:14 -22.74264 -43.36941 3525 ft 213 kts 122°
2026-05-08 23:15 -22.75087 -43.35696 3187 ft 197 kts 121°
2026-05-08 23:15 -22.75856 -43.34528 2807 ft 185 kts 121°